Weather History for PPIZ - March, 2014

Change the Weather History Date:

Wednesday, March 26, 2014

  Actual Average Record
Temperature  
Mean Temperature 10 °F -  
Max Temperature 23 °F 0 °F 23 °F (2014)
Min Temperature 0 °F -11 °F -32 °F (2012)
Degree Days  
Heating Degree Days 54    
Moisture  
Dew Point -1 °F    
Average Humidity 67    
Maximum Humidity 78    
Minimum Humidity 44    
Precipitation  
Precipitation 0.00 in - - ()
Sea Level Pressure  
Sea Level Pressure 29.87 in    
Wind  
Wind Speed 6 mph (ESE)    
Max Wind Speed 10 mph    
Max Gust Speed -    
Visibility 10 miles    
Events      
Averages and records for this station are not official NWS values.
T = Trace of Precipitation, MM = Missing Value Source: NWS Daily Summary

Daily Weather History Graph

Daily Weather History Graph

Search for Another Location

Airport or City:

Trip Planner

Search our weather history database for the weather conditions in past years. The results will help you decide how hot, cold, wet, or windy it might be!

Date:

Astronomy

Mar. 26, 2014 Rise Set
Actual Time 8:22 AM AKDT 9:35 PM AKDT
Civil Twilight 7:20 AM AKDT 10:37 PM AKDT
Nautical Twilight 5:56 AM AKDT 12:03 AM AKDT
Astronomical Twilight 3:30 AM AKDT 2:24 AM AKDT
Moon 7:53 AM AKDT 3:23 PM AKDT
Length of Visible Light 15h 17m
Length of Day
13h 12m
Waning Crescent, 20% of the Moon is Illuminated
Mar 26
Waning Crescent
Mar 30
New
Apr 7
First Quarter
Apr 14
Full
Apr 21
Last Quarter

Hourly Weather History & Observations

Time (AKDT) Temp. Windchill Dew Point Humidity Pressure Visibility Wind Dir Wind Speed Gust Speed Precip Events Conditions
12:56 AM 1.4 °F -9.9 °F -4.0 °F 78% 29.90 in 10.0 mi East 5.8 mph - N/A   Clear
1:56 AM 0.1 °F -12.8 °F -6.0 °F 75% 29.91 in 10.0 mi East 6.9 mph - N/A   Clear
2:56 AM 3.0 °F -8.0 °F -4.0 °F 73% 29.90 in 10.0 mi ESE 5.8 mph - N/A   Clear
3:56 AM -0.4 °F -14.7 °F -7.6 °F 72% 29.88 in 10.0 mi East 8.1 mph - N/A   Clear
4:56 AM 6.1 °F -6.8 °F -2.9 °F 67% 29.89 in 10.0 mi SE 8.1 mph - N/A   Clear
5:56 AM 3.0 °F -11.5 °F -4.9 °F 70% 29.89 in 10.0 mi ESE 9.2 mph - N/A   Clear
7:56 AM 5.0 °F -4.1 °F -2.9 °F 70% 29.89 in 10.0 mi SSE 4.6 mph - N/A   Clear
8:56 AM 8.1 °F -5.3 °F -1.8 °F 64% 29.88 in 10.0 mi SE 9.2 mph - N/A   Clear
9:56 AM 21.0 °F 13.4 °F 2.1 °F 44% 29.89 in 10.0 mi South 5.8 mph - N/A   Clear
10:56 AM 8.1 °F - -6.0 °F 53% 29.88 in 10.0 mi Calm Calm - N/A   Clear
11:56 AM 6.1 °F -8.7 °F -4.0 °F 63% 29.88 in 10.0 mi East 10.4 mph - N/A   Clear
12:56 PM 6.1 °F -2.8 °F -2.9 °F 67% 29.88 in 10.0 mi East 4.6 mph - N/A   Clear
1:56 PM 11.1 °F - 0.1 °F 61% 29.87 in 10.0 mi Calm Calm - N/A   Clear
2:56 PM 10.0 °F 0.4 °F 2.1 °F 70% 29.87 in 10.0 mi NE 5.8 mph - N/A   Clear
3:56 PM 14.0 °F 2.9 °F 3.0 °F 62% 29.87 in 10.0 mi East 8.1 mph - N/A   Clear
4:56 PM 14.0 °F 6.5 °F 5.0 °F 67% 29.86 in 10.0 mi ENE 4.6 mph - N/A   Clear
5:56 PM 13.1 °F 5.4 °F 5.0 °F 70% 29.85 in 10.0 mi ENE 4.6 mph - N/A   Clear
6:56 PM 12.0 °F -1.3 °F 4.1 °F 71% 29.83 in 10.0 mi ENE 10.4 mph - N/A   Clear
7:56 PM 12.0 °F - 3.0 °F 67% 29.83 in 10.0 mi Calm Calm - N/A   Clear
8:56 PM 9.1 °F -1.9 °F 2.1 °F 73% 29.83 in 10.0 mi East 6.9 mph - N/A   Clear
9:56 PM 9.1 °F -0.7 °F 2.1 °F 73% 29.83 in 10.0 mi SE 5.8 mph - N/A   Clear
10:56 PM 9.1 °F -1.9 °F 1.0 °F 70% 29.85 in 10.0 mi SSE 6.9 mph - N/A   Clear
11:56 PM 8.1 °F -3.2 °F -0.9 °F 67% 29.86 in 10.0 mi South 6.9 mph - N/A   Clear